This is the latest recevied weather packets stored in our database for station/object WB3IGR. If no packets are shown the sender has not sent any weather packets the latest 10 day(s).
| Time | Temp. | Humidity | Pressure | Rain* | Wind** | Luminosity | Snow |
|---|---|---|---|---|---|---|---|
| 1777929780 | 22.78° C | 41% | 1010.4 hPa | 0 mm | - | 379 W/m² | - |
| 1777929478 | 22.78° C | 41% | 1010.5 hPa | 0 mm | - | 371 W/m² | - |
| 1777929168 | 23.33° C | 41% | 1010.5 hPa | 0 mm | - | 391 W/m² | - |
| 1777928866 | 22.78° C | 41% | 1010.3 hPa | 0 mm | - | 413 W/m² | - |
| 1777928563 | 22.78° C | 43% | 1010.6 hPa | 0 mm | - | 436 W/m² | - |
| 1777928260 | 23.33° C | 41% | 1010.6 hPa | 0 mm | - | 462 W/m² | - |
| 1777927958 | 23.33° C | 43% | 1010.6 hPa | 0 mm | - | 462 W/m² | - |
| 1777927656 | 23.33° C | 42% | 1010.6 hPa | 0 mm | - | 501 W/m² | - |
| 1777927354 | 23.33° C | 43% | 1010.7 hPa | 0 mm | - | 495 W/m² | - |
| 1777927053 | 23.33° C | 41% | 1010.5 hPa | 0 mm | - | 491 W/m² | - |
| 1777926750 | 23.33° C | 43% | 1010.5 hPa | 0 mm | - | 504 W/m² | - |
| 1777926450 | 23.33° C | 42% | 1010.6 hPa | 0 mm | - | 512 W/m² | - |
| 1777926147 | 22.78° C | 42% | 1010.8 hPa | 0 mm | - | 503 W/m² | - |
| 1777925844 | 23.33° C | 41% | 1010.6 hPa | 0 mm | - | 509 W/m² | - |
| 1777925541 | 22.78° C | 40% | 1010.9 hPa | 0 mm | - | 542 W/m² | - |
| 1777925239 | 22.78° C | 41% | 1010.9 hPa | 0 mm | - | 533 W/m² | - |
| 1777924935 | 22.78° C | 42% | 1011.2 hPa | 0 mm | - | 505 W/m² | - |
| 1777924631 | 22.22° C | 44% | 1011.2 hPa | 0 mm | - | 596 W/m² | - |
| 1777924327 | 22.22° C | 43% | 1011.3 hPa | 0 mm | - | 130 W/m² | - |
| 1777924024 | 21.67° C | 43% | 1011.4 hPa | 0 mm | - | 604 W/m² | - |
| 1777923721 | 22.22° C | 43% | 1011.3 hPa | 0 mm | - | 605 W/m² | - |
| 1777923417 | 22.22° C | 43% | 1011.2 hPa | 0 mm | - | 626 W/m² | - |
| 1777923115 | 22.78° C | 42% | 1011.4 hPa | 0 mm | - | 649 W/m² | - |
| 1777922813 | 22.22° C | 43% | 1011.4 hPa | 0 mm | - | 636 W/m² | - |
| 1777922510 | 22.22° C | 43% | 1011.6 hPa | 0 mm | - | 632 W/m² | - |
* Rain latest hour (hover to see other rain measurements)
** Current wind speed in m/s (hover to see current wind gust speed)